Regional Weather Roundup
Issued by NWS Charleston, SC

Current Version | Previous Version | Graphics & Text | Print | Product List | Glossary On
Versions: 1 2 3 4 5 6 7 8 9 10 11 12 13 14 15 16 17 18 19 20 21 22 23 24 25 26 27 28 29 30 31 32 33 34 35 36 37 38 39 40 41 42 43 44 45 46 47 48 49 50
000 ASUS42 KCHS 020012 RWRCHS REGIONAL WEATHER ROUNDUP NATIONAL WEATHER SERVICE CHARLESTON SC 800 PM EDT SAT AUG 01 2015 NOTE: "FAIR" INDICATES FEW OR NO CLOUDS BELOW 12,000 FEET WITH NO SIGNIFICANT WEATHER AND/OR OBSTRUCTIONS TO VISIBILITY. NOT ALL STATIONS ARE QUALITY CONTROLLED BY THE NATIONAL WEATHER SERVICE. USE DATA WITH CAUTION...ESPECIALLY DEWPOINT OBSERVATIONS. SCZ027-030-031-034>040-042>050-020100- ...SOUTHEAST SOUTH CAROLINA... CITY SKY/WX TMP DP RH WIND PRES REMARKS N CHARLESTON MOCLDY 81 71 71 S6 29.89S 6HR MIN TEMP: 81; 6HR MAX TEMP: 86; WATERFRONT PRK N/A 81 76 85 S5 29.87S MOUNT PLEASANT LGT RAIN 82 75 78 S3 29.89F JOHNS ISLAND FAIR 81 75 83 S5 29.89F PINOPOLIS NOT AVBL MONCKS CORNER FAIR 84 73 70 CALM 29.89S HX 91 SUMMERVILLE FAIR 81 75 83 S3 29.90S BEAUFORT MCAS MOCLDY 81 77 88 CALM 29.89R 6HR MIN TEMP: 75; 6HR MAX TEMP: 88; 6HR PCP: 0.03; BEAUFORT ARPT FAIR 81 77 89 CALM 29.88S HILTON HEAD IS MOCLDY 81 75 83 S6 29.90R WALTERBORO PTCLDY 82 75 78 SE3 29.90S ALLENDALE FAIR 81 72 74 CALM 29.88S ...SOUTHERN MIDLANDS AND PEE DEE... CITY SKY/WX TMP DP RH WIND PRES REMARKS GEORGETOWN NOT AVBL KINGSTREE NOT AVBL ORANGEBURG CLEAR 84 71 65 S10 29.89R 6HR MIN TEMP: 84; 6HR MAX TEMP: 96; BARNWELL FAIR 82 73 74 S6 29.90R AIKEN CLOUDY 82 68 61 S9 29.93R MANNING RAIN 84 72 65 SE5 29.88S COLUMBIA MOCLDY 95 60 31 NW6 29.86R HX 95 6HR MIN TEMP: 94; 6HR MAX TEMP: 98; SUMTER MOCLDY 88 72 57 SE8 29.86R HX 95 6HR MIN TEMP: 88; 6HR MAX TEMP: 98; FLORENCE MOCLDY 89 70 53 S7 29.86S HX 94 6HR MIN TEMP: 89; 6HR MAX TEMP: 96; MYRTLE BEACH CLEAR 82 72 69 S14 29.90S N MYRTLE BEACH CLEAR 82 73 74 S10 29.89S 6HR MIN TEMP: 82; 6HR MAX TEMP: 87; $$ GAZ063-065-086>088-099>101-113>116-118-119-134>141-150-020100- ...SOUTHEAST GEORGIA... CITY SKY/WX TMP DP RH WIND PRES REMARKS SAVANNAH ARPT CLOUDY 79 77 94 E5 29.89R 6HR MIN TEMP: 76; 6HR MAX TEMP: 91; 6HR PCP: 0.53; HUNTER AAF CLOUDY 82 78 89 SE6 29.86R HX 90 6HR MIN TEMP: 78; 6HR MAX TEMP: 87; 6HR PCP: 0.29; FORT STEWART NOT AVBL STATESBORO MOCLDY 79 79 100 CALM 29.89R SYLVANIA MOCLDY 80 76 89 CALM 29.90R CLAXTON NOT AVBL ...CSRA...CENTRAL AND FAR SOUTHEAST GEORGIA... CITY SKY/WX TMP DP RH WIND PRES REMARKS THOMSON CLEAR 87 72 60 CALM 29.92S HX 94 AUGUSTA-BUSH PTCLDY 83 73 72 S14 29.87R 6HR MIN TEMP: 83; 6HR MAX TEMP: 94; AUGUSTA-DANIEL MOCLDY 85 73 67 SE12 29.89R HX 91 SWAINSBORO MOCLDY 82 73 74 SE7 29.92R VIDALIA CLOUDY 75 73 94 E5 29.90S EASTMAN MOCLDY 83 73 72 E14 29.92R HAZLEHURST TSTM 76 76 100 E6 29.91R ALMA MOCLDY 81 72 74 NE12G20 29.87R 6HR MIN TEMP: 81; 6HR MAX TEMP: 91; WAYCROSS PTCLDY 86 79 80 E5 29.86R HX 100 JESUP FAIR 86 79 79 SE5 29.88S HX 99 BAXLEY NOT AVBL BRUNSWICK MOCLDY 82 75 78 SE6 29.88R SAINT SIMONS CLOUDY 82 74 76 S9 29.87S 6HR MIN TEMP: 81; 6HR MAX TEMP: 87; $$ SCZ027-028-034-036>038-045-046-048>050-GAZ119-141-020100- ...LAKE AND SUPPLEMENTAL COASTAL OBSERVATIONS... STATION/POSITION TIME TEMP WIND PRES WAVE SWELL AIR SEA DIR/SP/G HT/PER HT/PER/DIR (UTC) (F) (DEG/KT/KT) (MB) (FT/S) (FT/S/D) UPR LAKE MARION NOT AVBL WINYAH BAY NOT AVBL LAKE MURRAY 2300 93 310/ 3/ 6 1010.8S ACE BASIN NERRS NOT AVBL FORT PULASKI 2300 82 87 140/ 5/ 7 1012.0F SAPELO ISLAND 2300 84 140/ 7 1011.0F $$ ANZ835-935-AMZ111-154-330-350-352-354-370-450-454-472-020100- ...C-MAN AND BUOY OBSERVATIONS... STATION/POSITION TIME TEMP WIND PRES WAVE SWELL AIR SEA DIR/SP/G HT/PER HT/PER/DIR (UTC) (F) (DEG/KT/KT) (MB) (FT/S) (FT/S/D) BUOY 41004 2350 80 84 180/ 4/ 4 1011.9R 3/ 7 3/ 7 BUOY 41008 2350 80 83 190/ 14/ 16 1011.5F 3/ 6 2/120/ 8 FOLLY BEACH CMAN 2300 80 180/ 5/ 7 1012.5F CAPERS NEARSHORE 2308 81 190/ 6/ 10 1012.3F FRIPP NEARSHORE 2300 82 160/ 10/ 14 1011.7F STATION/POSITION TIME TEMP WIND PRES WAVE SWELL AIR SEA DIR/SP/G HT/PER HT/PER/DIR (UTC) (F) (DEG/KT/KT) (MB) (FT/S) (FT/S/D) 5E ST. MARYS GA 2321 84 N/A 3/ 5 FRYING PAN BUOY 2350 82 83 210/ 10/ 12 1012.7R 4/ 7 3/150/ 7 BUOY 41025 2350 83 85 230/ 12/ 14 1012.2R 3/ 8 2/160/ 8 CAPE LOOKOUT NC 2300 81 200/ 12/ 16 1011.7R BUOY 41002 2350 83 81 210/ 14/ 16 1015.0R 6/ 7 5/230/ 7 BUOY 41010 2320 77 84 250/ 27/ 31 1015.5R ST AUGUSTINE FL 0000 77 81 200/ 10/ 13 1013.2F $$

USA.gov is the U.S. government's official web portal to all federal, state and local government web resources and services.